Vertical_Velocity
3 3 3 2 0 1 -0 1 0 0 1 -2 3 -0 0 0 -2 -0 3 -0 -1 -5 -1 -2 -2 -1 0
3 2 2 3 2 0 2 4 1 2 -3 -0 0 -0 -1 -1 -1 0 -0 -2 -7 -2 0 -4 2 0 -3
4 3 2 2 1 -0 -1 1 1 1 2 1 -0 -1 -2 -0 1 1 -1 -2 2 -0 -0 -0 -2 -2 -3
2 4 2 2 1 0 1 1 0 1 0 1 -0 -1 1 -3 -2 0 -1 -2 -1 0 -2 1 -3 -2 -0
3 2 2 1 0 -0 1 0 1 -0 1 0 -0 0 1 -0 1 2 1 0 1 -0 1 2 1 -1 1
1 0 1 1 2 -1 -1 -1 -1 -1 0 0 1 3 1 1 -0 -1 2 2 -0 -1 -1 -1 -1 -3 -0
-0 -0 2 2 1 0 1 1 0 0 0 -0 0 -0 1 0 -1 -0 -0 -1 -1 -0 -1 -1 -2 -2 -2
0 -1 1 1 0 1 1 1 0 1 1 1 1 1 0 -0 -1 -1 -1 -1 -2 -1 -1 -0 -0 -1 1
-0 -1 1 -0 0 -0 -1 -0 0 1 0 0 -0 -0 -0 -1 -1 -2 -1 0 -0 1 1 -0 -1 1 2
-1 -0 -1 -1 -1 -0 -1 -0 0 1 0 -0 -0 -0 -0 0 1 2 0 -0 1 1 -0 -1 -2 -1 -1
-1 1 -0 -1 -1 -0 1 0 -1 -1 -1 -0 0 0 1 -1 -1 -1 -2 -1 0 1 -0 -1 -1 -3 -2
1 0 -0 -1 -1 0 -0 -0 0 1 1 -0 -1 -1 -0 -0 1 0 0 -0 1 1 -2 -2 -2 -2 -3
0 -0 -0 -1 0 -1 0 1 1 0 -0 -1 -1 -1 -1 -1 -1 -0 -2 -2 1 3 -3 -4 -0 1 4
-0 1 -1 -1 -0 -0 0 0 -0 -0 -0 -0 0 -1 -1 -0 -0 2 0 -0 -1 2 2 -2 -2 -3 -4
1 0 -1 0 0 -0 1 1 0 0 -0 -0 0 0 0 1 0 1 1 1 1 1 3 3 -1 0 0
-0 -0 -0 -0 -0 1 2 1 0 -0 -0 -2 0 1 -1 0 0 1 1 1 -1 -2 -2 -2 1 2 0
-0 0 0 -0 -0 1 2 2 0 -0 -0 -0 -1 0 1 1 0 2 1 1 1 -0 -2 -1 -4 -3 -3
Height
5616 5617 5619 5621 5622 5625 5627 5630 5632 5636 5639 5641 5644 5646 5648 5649 5652 5654 5655 5656 5657 5658 5658 5659 5660 5661 5660
5609 5610 5611 5612 5613 5615 5618 5621 5623 5626 5628 5630 5632 5634 5636 5638 5639 5641 5642 5644 5644 5644 5645 5646 5645 5647 5647
5602 5603 5604 5604 5605 5606 5608 5609 5612 5614 5616 5618 5620 5623 5625 5626 5627 5629 5630 5630 5630 5630 5630 5630 5631 5631 5630
5595 5596 5597 5597 5598 5599 5599 5600 5602 5603 5605 5606 5608 5610 5612 5613 5615 5616 5616 5616 5616 5616 5616 5615 5615 5616 5615
5588 5589 5590 5591 5591 5592 5592 5593 5594 5595 5596 5597 5598 5600 5601 5602 5602 5603 5604 5604 5604 5605 5604 5603 5603 5602 5602
5581 5582 5583 5584 5584 5585 5586 5586 5588 5589 5589 5589 5590 5590 5591 5592 5593 5593 5594 5593 5593 5592 5591 5590 5590 5590 5589
5574 5575 5576 5577 5578 5578 5579 5580 5580 5580 5581 5581 5581 5582 5582 5583 5582 5582 5582 5582 5581 5581 5580 5579 5578 5578 5577
5566 5568 5569 5570 5571 5571 5572 5572 5572 5573 5573 5573 5573 5573 5573 5573 5573 5573 5573 5572 5572 5571 5570 5569 5569 5568 5567
5559 5561 5562 5563 5564 5565 5565 5565 5566 5566 5566 5566 5566 5566 5566 5566 5566 5566 5565 5565 5564 5563 5562 5561 5559 5558 5557
5553 5555 5556 5557 5558 5558 5559 5559 5559 5559 5559 5559 5559 5559 5559 5559 5559 5558 5558 5557 5557 5555 5553 5552 5551 5550 5549
5546 5548 5549 5550 5551 5551 5551 5552 5552 5552 5551 5551 5551 5552 5552 5552 5552 5552 5551 5550 5548 5547 5546 5545 5544 5542 5541
5540 5541 5542 5543 5544 5544 5545 5545 5545 5545 5544 5545 5545 5545 5545 5545 5545 5544 5543 5542 5541 5540 5539 5538 5536 5533 5531
5534 5535 5536 5537 5537 5538 5538 5538 5538 5539 5539 5539 5538 5538 5538 5538 5537 5537 5536 5535 5535 5534 5532 5530 5527 5525 5523
5528 5529 5530 5530 5531 5531 5532 5532 5533 5533 5533 5532 5532 5532 5532 5531 5531 5530 5529 5529 5528 5527 5525 5522 5520 5517 5514
5522 5523 5524 5524 5525 5525 5526 5526 5527 5526 5526 5525 5525 5526 5525 5525 5524 5524 5523 5522 5521 5519 5517 5516 5513 5510 5506
5516 5517 5518 5519 5519 5520 5520 5521 5521 5520 5520 5520 5520 5520 5519 5519 5518 5518 5516 5515 5513 5512 5510 5507 5504 5500 5494
5510 5511 5512 5513 5514 5514 5515 5515 5515 5515 5514 5514 5514 5514 5514 5513 5512 5511 5510 5510 5509 5506 5503 5499 5494 5490 5483